Location: Unspecified
(35.7250°N, 0.0000°E)
Time: 17:51:17
(UTC+00:00)

Courier 1B Rocket - Pass Details

Date: 20 June 2019
Orbit: 921 x 1202 km, 28.2° (Epoch: 17 July)

Event Time Altitude Azimuth Distance (km) Brightness Sun altitude
Exits shadow 03:56:01 - 212° (SSW) 2,966 6.9 -8.9°
Reaches altitude 10° 03:56:32 10° 209° (SSW) 2,825 6.9 -8.9°
Maximum altitude 04:01:43 23° 160° (SSE) 1,956 6.5 -8.0°
Drops below altitude 10° 04:06:41 10° 109° (ESE) 2,687 7.8 -7.2°
Sets 04:09:48 0° 96° (E) 3,601 8.8 -6.7°
